Year,Month,Day,Hour,Minute,Value (Times are PST for windspeed in km/hr)
2012,11,19,00,00,1.50
2012,11,19,00,01,0.00
2012,11,19,00,02,0.00
2012,11,19,00,03,0.40
2012,11,19,00,04,0.00
2012,11,19,00,05,1.20
2012,11,19,00,06,0.00
2012,11,19,00,07,0.00
2012,11,19,00,08,0.00
2012,11,19,00,09,0.10
2012,11,19,00,10,2.40
2012,11,19,00,11,2.20
2012,11,19,00,12,2.10
2012,11,19,00,13,1.10
2012,11,19,00,14,1.50
2012,11,19,00,15,4.70
2012,11,19,00,16,3.60
2012,11,19,00,17,5.20
2012,11,19,00,18,3.20
2012,11,19,00,19,2.60
2012,11,19,00,20,3.00
2012,11,19,00,21,2.00
2012,11,19,00,22,2.90
2012,11,19,00,23,2.40
2012,11,19,00,24,0.30
2012,11,19,00,25,0.20
2012,11,19,00,26,0.20
2012,11,19,00,27,0.00
2012,11,19,00,28,1.20
2012,11,19,00,29,0.80
2012,11,19,00,30,0.10
2012,11,19,00,31,0.20
2012,11,19,00,32,0.60
2012,11,19,00,33,2.20
2012,11,19,00,34,1.30
2012,11,19,00,35,0.00
2012,11,19,00,36,0.00
2012,11,19,00,37,0.20
2012,11,19,00,38,0.20
2012,11,19,00,39,2.70
2012,11,19,00,40,4.80
2012,11,19,00,41,1.90
2012,11,19,00,42,2.30
2012,11,19,00,43,2.40
2012,11,19,00,44,3.90
2012,11,19,00,45,3.80
2012,11,19,00,46,2.70
2012,11,19,00,47,1.20
2012,11,19,00,48,1.00
2012,11,19,00,49,1.80
2012,11,19,00,50,0.00
2012,11,19,00,51,1.20
2012,11,19,00,52,0.00
2012,11,19,00,53,0.00
2012,11,19,00,54,0.00
2012,11,19,00,55,0.00
2012,11,19,00,56,0.40
2012,11,19,00,57,0.70
2012,11,19,00,58,0.70
2012,11,19,00,59,0.60
2012,11,19,01,00,0.00
2012,11,19,01,01,0.00
2012,11,19,01,02,0.00
2012,11,19,01,03,0.00
2012,11,19,01,04,0.00
2012,11,19,01,05,0.00
2012,11,19,01,06,0.00
2012,11,19,01,07,2.20
2012,11,19,01,08,3.10
2012,11,19,01,09,1.40
2012,11,19,01,10,3.60
2012,11,19,01,11,3.70
2012,11,19,01,12,2.40
2012,11,19,01,13,2.10
2012,11,19,01,14,2.60
2012,11,19,01,15,0.70
2012,11,19,01,16,1.40
2012,11,19,01,17,0.40
2012,11,19,01,18,4.00
2012,11,19,01,19,3.70
2012,11,19,01,20,4.20
2012,11,19,01,21,4.20
2012,11,19,01,22,1.80
2012,11,19,01,23,3.40
2012,11,19,01,24,2.20
2012,11,19,01,25,0.20
2012,11,19,01,26,0.10
2012,11,19,01,27,0.00
2012,11,19,01,28,2.40
2012,11,19,01,29,2.00
2012,11,19,01,30,1.40
2012,11,19,01,31,1.00
2012,11,19,01,32,3.30
2012,11,19,01,33,1.80
2012,11,19,01,34,5.40
2012,11,19,01,35,5.40
2012,11,19,01,36,4.40
2012,11,19,01,37,2.30
2012,11,19,01,38,0.20
2012,11,19,01,39,2.10
2012,11,19,01,40,1.40
2012,11,19,01,41,0.90
2012,11,19,01,42,0.00
2012,11,19,01,43,1.10
2012,11,19,01,44,4.00
2012,11,19,01,45,3.40
2012,11,19,01,46,0.70
2012,11,19,01,47,2.40
2012,11,19,01,48,3.00
2012,11,19,01,49,2.00
2012,11,19,01,50,0.60
2012,11,19,01,51,0.20
2012,11,19,01,52,0.70
2012,11,19,01,53,3.00
2012,11,19,01,54,2.20
2012,11,19,01,55,3.20
2012,11,19,01,56,0.90
2012,11,19,01,57,0.40
2012,11,19,01,58,1.00
2012,11,19,01,59,8.10
2012,11,19,02,00,8.10
2012,11,19,02,01,3.80
2012,11,19,02,02,8.00
2012,11,19,02,03,6.20
2012,11,19,02,04,5.80
2012,11,19,02,05,11.20
2012,11,19,02,06,12.40
2012,11,19,02,07,9.10
2012,11,19,02,08,15.30
2012,11,19,02,09,12.80
2012,11,19,02,10,13.20
2012,11,19,02,11,14.80
2012,11,19,02,12,9.10
2012,11,19,02,13,11.90
2012,11,19,02,14,17.40
2012,11,19,02,15,14.70
2012,11,19,02,16,13.00
2012,11,19,02,17,15.00
2012,11,19,02,18,13.00
2012,11,19,02,19,14.40
2012,11,19,02,20,10.40
2012,11,19,02,21,16.80
2012,11,19,02,22,15.40
2012,11,19,02,23,10.00
2012,11,19,02,24,14.70
2012,11,19,02,25,13.30
2012,11,19,02,26,12.30
2012,11,19,02,27,18.00
2012,11,19,02,28,15.70
2012,11,19,02,29,15.60
2012,11,19,02,30,11.00
2012,11,19,02,31,12.50
2012,11,19,02,32,10.60
2012,11,19,02,33,8.00
2012,11,19,02,34,5.80
2012,11,19,02,35,2.70
2012,11,19,02,36,4.70
2012,11,19,02,37,5.10
2012,11,19,02,38,8.40
2012,11,19,02,39,8.00
2012,11,19,02,40,8.70
2012,11,19,02,41,7.10
2012,11,19,02,42,9.60
2012,11,19,02,43,9.10
2012,11,19,02,44,7.50
2012,11,19,02,45,13.50
2012,11,19,02,46,5.80
2012,11,19,02,47,5.80
2012,11,19,02,48,9.90
2012,11,19,02,49,11.70
2012,11,19,02,50,7.40
2012,11,19,02,51,4.70
2012,11,19,02,52,3.90
2012,11,19,02,53,4.80
2012,11,19,02,54,3.80
2012,11,19,02,55,5.80
2012,11,19,02,56,8.00
2012,11,19,02,57,6.80
2012,11,19,02,58,16.50
2012,11,19,02,59,16.70
2012,11,19,03,00,13.60
2012,11,19,03,01,16.30
2012,11,19,03,02,7.80
2012,11,19,03,03,10.10
2012,11,19,03,04,9.80
2012,11,19,03,05,13.80
2012,11,19,03,06,8.00
2012,11,19,03,07,10.70
2012,11,19,03,08,11.80
2012,11,19,03,09,10.00
2012,11,19,03,10,13.00
2012,11,19,03,11,14.70
2012,11,19,03,12,12.40
2012,11,19,03,13,9.60
2012,11,19,03,14,9.10
2012,11,19,03,15,7.90
2012,11,19,03,16,8.40
2012,11,19,03,17,9.90
2012,11,19,03,18,12.70
2012,11,19,03,19,14.00
2012,11,19,03,20,17.10
2012,11,19,03,21,12.00
2012,11,19,03,22,10.60
2012,11,19,03,23,15.00
2012,11,19,03,24,12.10
2012,11,19,03,25,12.00
2012,11,19,03,26,14.90
2012,11,19,03,27,14.50
2012,11,19,03,28,6.60
2012,11,19,03,29,5.20
2012,11,19,03,30,6.40
2012,11,19,03,31,7.10
2012,11,19,03,32,5.20
2012,11,19,03,33,1.80
2012,11,19,03,34,1.00
2012,11,19,03,35,7.90
2012,11,19,03,36,7.60
2012,11,19,03,37,5.70
2012,11,19,03,38,6.70
2012,11,19,03,39,7.10
2012,11,19,03,40,4.40
2012,11,19,03,41,3.00
2012,11,19,03,42,5.80
2012,11,19,03,43,6.70
2012,11,19,03,44,7.50
2012,11,19,03,45,10.00
2012,11,19,03,46,6.30
2012,11,19,03,47,5.60
2012,11,19,03,48,2.20
2012,11,19,03,49,3.50
2012,11,19,03,50,3.30
2012,11,19,03,51,5.20
2012,11,19,03,52,7.00
2012,11,19,03,53,5.80
2012,11,19,03,54,4.70
2012,11,19,03,55,3.80
2012,11,19,03,56,1.80
2012,11,19,03,57,5.30
2012,11,19,03,58,0.60
2012,11,19,03,59,0.70
2012,11,19,04,00,2.60
2012,11,19,04,01,1.40
2012,11,19,04,02,3.90
2012,11,19,04,03,2.70
2012,11,19,04,04,3.80
2012,11,19,04,05,6.10
2012,11,19,04,06,3.90
2012,11,19,04,07,11.70
2012,11,19,04,08,6.50
2012,11,19,04,09,4.30
2012,11,19,04,10,5.10
2012,11,19,04,11,8.20
2012,11,19,04,12,2.80
2012,11,19,04,13,2.20
2012,11,19,04,14,4.70
2012,11,19,04,15,2.60
2012,11,19,04,16,2.30
2012,11,19,04,17,3.50
2012,11,19,04,18,2.00
2012,11,19,04,19,7.70
2012,11,19,04,20,7.00
2012,11,19,04,21,7.20
2012,11,19,04,22,6.20
2012,11,19,04,23,2.60
2012,11,19,04,24,3.90
2012,11,19,04,25,6.40
2012,11,19,04,26,3.50
2012,11,19,04,27,1.30
2012,11,19,04,28,0.90
2012,11,19,04,29,0.40
2012,11,19,04,30,0.30
2012,11,19,04,31,2.20
2012,11,19,04,32,0.20
2012,11,19,04,33,0.30
2012,11,19,04,34,1.70
2012,11,19,04,35,3.10
2012,11,19,04,36,3.00
2012,11,19,04,37,0.20
2012,11,19,04,38,0.10
2012,11,19,04,39,0.10
2012,11,19,04,40,0.00
2012,11,19,04,41,0.00
2012,11,19,04,42,0.00
2012,11,19,04,43,0.00
2012,11,19,04,44,0.00
2012,11,19,04,45,0.00
2012,11,19,04,46,0.00
2012,11,19,04,47,0.00
2012,11,19,04,48,0.90
2012,11,19,04,49,0.10
2012,11,19,04,50,0.00
2012,11,19,04,51,0.00
2012,11,19,04,52,0.00
2012,11,19,04,53,0.10
2012,11,19,04,54,0.00
2012,11,19,04,55,0.00
2012,11,19,04,56,0.10
2012,11,19,04,57,1.10
2012,11,19,04,58,2.30
2012,11,19,04,59,1.40
2012,11,19,05,00,0.80
2012,11,19,05,01,0.10
2012,11,19,05,02,0.40
2012,11,19,05,03,0.30
2012,11,19,05,04,1.00
2012,11,19,05,05,2.20
2012,11,19,05,06,0.00
2012,11,19,05,07,0.00
2012,11,19,05,08,1.90
2012,11,19,05,09,0.60
2012,11,19,05,10,0.00
2012,11,19,05,11,0.00
2012,11,19,05,12,0.00
2012,11,19,05,13,0.10
2012,11,19,05,14,0.30
2012,11,19,05,15,0.20
2012,11,19,05,16,1.20
2012,11,19,05,17,1.00
2012,11,19,05,18,0.00
2012,11,19,05,19,0.00
2012,11,19,05,20,0.00
2012,11,19,05,21,0.10
2012,11,19,05,22,0.70
2012,11,19,05,23,1.20
2012,11,19,05,24,0.20
2012,11,19,05,25,1.00
2012,11,19,05,26,0.00
2012,11,19,05,27,0.00
2012,11,19,05,28,0.00
2012,11,19,05,29,0.00
2012,11,19,05,30,0.00
2012,11,19,05,31,0.90
2012,11,19,05,32,3.90
2012,11,19,05,33,5.00
2012,11,19,05,34,3.90
2012,11,19,05,35,1.80
2012,11,19,05,36,0.00
2012,11,19,05,37,0.30
2012,11,19,05,38,2.40
2012,11,19,05,39,3.90
2012,11,19,05,40,5.60
2012,11,19,05,41,6.60
2012,11,19,05,42,6.40
2012,11,19,05,43,4.40
2012,11,19,05,44,4.70
2012,11,19,05,45,7.00
2012,11,19,05,46,4.80
2012,11,19,05,47,1.70
2012,11,19,05,48,0.00
2012,11,19,05,49,0.40
2012,11,19,05,50,0.00
2012,11,19,05,51,0.80
2012,11,19,05,52,0.20
2012,11,19,05,53,0.60
2012,11,19,05,54,0.00
2012,11,19,05,55,0.00
2012,11,19,05,56,0.80
2012,11,19,05,57,0.20
2012,11,19,05,58,0.70
2012,11,19,05,59,0.30
2012,11,19,06,00,1.40
2012,11,19,06,01,1.30
2012,11,19,06,02,0.90
2012,11,19,06,03,0.00
2012,11,19,06,04,0.00
2012,11,19,06,05,0.00
2012,11,19,06,06,0.70
2012,11,19,06,07,0.10
2012,11,19,06,08,0.10
2012,11,19,06,09,0.50
2012,11,19,06,10,0.00
2012,11,19,06,11,0.00
2012,11,19,06,12,0.00
2012,11,19,06,13,0.00
2012,11,19,06,14,0.00
2012,11,19,06,15,0.00
2012,11,19,06,16,0.00
2012,11,19,06,17,0.00
2012,11,19,06,18,0.60
2012,11,19,06,19,1.80
2012,11,19,06,20,1.70
2012,11,19,06,21,4.40
2012,11,19,06,22,4.70
2012,11,19,06,23,5.10
2012,11,19,06,24,6.00
2012,11,19,06,25,7.90
2012,11,19,06,26,8.70
2012,11,19,06,27,6.20
2012,11,19,06,28,7.20
2012,11,19,06,29,8.50
2012,11,19,06,30,4.20
2012,11,19,06,31,4.80
2012,11,19,06,32,10.70
2012,11,19,06,33,8.00
2012,11,19,06,34,4.00
2012,11,19,06,35,6.30
2012,11,19,06,36,5.60
2012,11,19,06,37,10.50
2012,11,19,06,38,11.70
2012,11,19,06,39,8.90
2012,11,19,06,40,16.10
2012,11,19,06,41,17.20
2012,11,19,06,42,11.70
2012,11,19,06,43,12.50
2012,11,19,06,44,20.40
2012,11,19,06,45,22.90
2012,11,19,06,46,19.50
2012,11,19,06,47,20.40
2012,11,19,06,48,17.30
2012,11,19,06,49,11.00
2012,11,19,06,50,23.70
2012,11,19,06,51,20.00
2012,11,19,06,52,20.40
2012,11,19,06,53,14.70
2012,11,19,06,54,16.90
2012,11,19,06,55,12.30
2012,11,19,06,56,10.40
2012,11,19,06,57,10.50
2012,11,19,06,58,16.70
2012,11,19,06,59,11.80
2012,11,19,07,00,16.30
2012,11,19,07,01,13.80
2012,11,19,07,02,12.60
2012,11,19,07,03,20.60
2012,11,19,07,04,13.30
2012,11,19,07,05,18.90
2012,11,19,07,06,16.70
2012,11,19,07,07,20.80
2012,11,19,07,08,27.10
2012,11,19,07,09,24.10
2012,11,19,07,10,20.00
2012,11,19,07,11,23.30
2012,11,19,07,12,25.30
2012,11,19,07,13,19.90
2012,11,19,07,14,23.20
2012,11,19,07,15,25.60
2012,11,19,07,16,24.00
2012,11,19,07,17,23.60
2012,11,19,07,18,28.10
2012,11,19,07,19,25.80
2012,11,19,07,20,26.60
2012,11,19,07,21,25.30
2012,11,19,07,22,23.30
2012,11,19,07,23,19.50
2012,11,19,07,24,25.90
2012,11,19,07,25,25.30
2012,11,19,07,26,24.30
2012,11,19,07,27,18.50
2012,11,19,07,28,19.20
2012,11,19,07,29,23.70
2012,11,19,07,30,25.80
2012,11,19,07,31,25.50
2012,11,19,07,32,23.30
2012,11,19,07,33,31.40
2012,11,19,07,34,25.80
2012,11,19,07,35,24.10
2012,11,19,07,36,25.70
2012,11,19,07,37,25.10
2012,11,19,07,38,20.00
2012,11,19,07,39,22.80
2012,11,19,07,40,26.60
2012,11,19,07,41,23.60
2012,11,19,07,42,25.30
2012,11,19,07,43,22.70
2012,11,19,07,44,15.80
2012,11,19,07,45,23.70
2012,11,19,07,46,21.80
2012,11,19,07,47,17.10
2012,11,19,07,48,22.30
2012,11,19,07,49,24.80
2012,11,19,07,50,25.90
2012,11,19,07,51,24.70
2012,11,19,07,52,22.60
2012,11,19,07,53,19.80
2012,11,19,07,54,22.70
2012,11,19,07,55,21.00
2012,11,19,07,56,22.80
2012,11,19,07,57,17.90
2012,11,19,07,58,22.20
2012,11,19,07,59,15.90
2012,11,19,08,00,16.20
2012,11,19,08,01,14.90
2012,11,19,08,02,21.80
2012,11,19,08,03,23.70
2012,11,19,08,04,23.20
2012,11,19,08,05,25.00
2012,11,19,08,06,22.10
2012,11,19,08,07,20.80
2012,11,19,08,08,19.40
2012,11,19,08,09,18.00
2012,11,19,08,10,15.00
2012,11,19,08,11,15.20
2012,11,19,08,12,12.10
2012,11,19,08,13,16.70
2012,11,19,08,14,22.10
2012,11,19,08,15,22.50
2012,11,19,08,16,15.30
2012,11,19,08,17,18.80
2012,11,19,08,18,22.00
2012,11,19,08,19,19.60
2012,11,19,08,20,20.70
2012,11,19,08,21,17.90
2012,11,19,08,22,21.90
2012,11,19,08,23,22.00
2012,11,19,08,24,21.10
2012,11,19,08,25,20.70
2012,11,19,08,26,20.10
2012,11,19,08,27,23.00
2012,11,19,08,28,23.90
2012,11,19,08,29,17.50
2012,11,19,08,30,20.80
2012,11,19,08,31,14.30
2012,11,19,08,32,16.70
2012,11,19,08,33,14.60
2012,11,19,08,34,17.30
2012,11,19,08,35,11.50
2012,11,19,08,36,15.90
2012,11,19,08,37,18.30
2012,11,19,08,38,22.30
2012,11,19,08,39,16.70
2012,11,19,08,40,21.10
2012,11,19,08,41,18.60
2012,11,19,08,42,16.60
2012,11,19,08,43,20.90
2012,11,19,08,44,19.50
2012,11,19,08,45,20.60
2012,11,19,08,46,19.60
2012,11,19,08,47,13.50
2012,11,19,08,48,17.90
2012,11,19,08,49,22.30
2012,11,19,08,50,14.20
2012,11,19,08,51,25.10
2012,11,19,08,52,16.40
2012,11,19,08,53,17.40
2012,11,19,08,54,14.60
2012,11,19,08,55,16.70
2012,11,19,08,56,18.30
2012,11,19,08,57,15.90
2012,11,19,08,58,20.00
2012,11,19,08,59,17.20
2012,11,19,09,00,16.90
2012,11,19,09,01,14.20
2012,11,19,09,02,15.10
2012,11,19,09,03,12.40
2012,11,19,09,04,16.70
2012,11,19,09,05,16.70
2012,11,19,09,06,17.10
2012,11,19,09,07,10.10
2012,11,19,09,08,12.90
2012,11,19,09,09,14.30
2012,11,19,09,10,17.10
2012,11,19,09,11,19.10
2012,11,19,09,12,16.90
2012,11,19,09,13,16.50
2012,11,19,09,14,15.50
2012,11,19,09,15,12.90
2012,11,19,09,16,14.30
2012,11,19,09,17,11.30
2012,11,19,09,18,15.60
2012,11,19,09,19,17.00
2012,11,19,09,20,14.50
2012,11,19,09,21,10.70
2012,11,19,09,22,12.40
2012,11,19,09,23,15.90
2012,11,19,09,24,14.30
2012,11,19,09,25,11.60
2012,11,19,09,26,8.20
2012,11,19,09,27,10.10
2012,11,19,09,28,11.20
2012,11,19,09,29,11.30
2012,11,19,09,30,15.90
2012,11,19,09,31,10.70
2012,11,19,09,32,7.10
2012,11,19,09,33,6.40
2012,11,19,09,34,13.70
2012,11,19,09,35,9.30
2012,11,19,09,36,6.10
2012,11,19,09,37,10.70
2012,11,19,09,38,9.10
2012,11,19,09,39,10.10
2012,11,19,09,40,6.60
2012,11,19,09,41,8.10
2012,11,19,09,42,6.70
2012,11,19,09,43,9.10
2012,11,19,09,44,6.60
2012,11,19,09,45,8.80
2012,11,19,09,46,13.20
2012,11,19,09,47,12.50
2012,11,19,09,48,10.30
2012,11,19,09,49,10.60
2012,11,19,09,50,7.20
2012,11,19,09,51,14.80
2012,11,19,09,52,7.40
2012,11,19,09,53,3.90
2012,11,19,09,54,2.60
2012,11,19,09,55,6.50
2012,11,19,09,56,10.20
2012,11,19,09,57,7.40
2012,11,19,09,58,10.50
2012,11,19,09,59,5.50
2012,11,19,10,00,4.90
2012,11,19,10,01,4.90
2012,11,19,10,02,3.10
2012,11,19,10,03,7.10
2012,11,19,10,04,8.20
2012,11,19,10,05,6.80
2012,11,19,10,06,9.70
2012,11,19,10,07,5.50
2012,11,19,10,08,11.40
2012,11,19,10,09,6.60
2012,11,19,10,10,7.00
2012,11,19,10,11,9.20
2012,11,19,10,12,10.40
2012,11,19,10,13,8.20
2012,11,19,10,14,6.10
2012,11,19,10,15,4.70
2012,11,19,10,16,7.90
2012,11,19,10,17,5.00
2012,11,19,10,18,3.00
2012,11,19,10,19,2.70
2012,11,19,10,20,6.80
2012,11,19,10,21,3.90
2012,11,19,10,22,4.80
2012,11,19,10,23,8.30
2012,11,19,10,24,7.90
2012,11,19,10,25,8.30
2012,11,19,10,26,6.40
2012,11,19,10,27,11.20
2012,11,19,10,28,6.80
2012,11,19,10,29,10.50
2012,11,19,10,30,7.20
2012,11,19,10,31,7.50
2012,11,19,10,32,11.00
2012,11,19,10,33,8.80
2012,11,19,10,34,5.20
2012,11,19,10,35,5.80
2012,11,19,10,36,7.70
2012,11,19,10,37,7.50
2012,11,19,10,38,9.80
2012,11,19,10,39,6.00
2012,11,19,10,40,6.00
2012,11,19,10,41,2.90
2012,11,19,10,42,2.20
2012,11,19,10,43,6.50
2012,11,19,10,44,8.40
2012,11,19,10,45,6.10
2012,11,19,10,46,4.10
2012,11,19,10,47,1.20
2012,11,19,10,48,3.10
2012,11,19,10,49,7.70
2012,11,19,10,50,12.00
2012,11,19,10,51,12.70
2012,11,19,10,52,8.40
2012,11,19,10,53,8.40
2012,11,19,10,54,10.00
2012,11,19,10,55,8.90
2012,11,19,10,56,5.20
2012,11,19,10,57,4.50
2012,11,19,10,58,5.00
2012,11,19,10,59,5.80
2012,11,19,11,00,6.20
2012,11,19,11,01,5.40
2012,11,19,11,02,4.30
2012,11,19,11,03,1.60
2012,11,19,11,04,5.30
2012,11,19,11,05,9.70
2012,11,19,11,06,11.20
2012,11,19,11,07,10.50
2012,11,19,11,08,6.80
2012,11,19,11,09,3.50
2012,11,19,11,10,6.20
2012,11,19,11,11,9.90
2012,11,19,11,12,10.50
2012,11,19,11,13,8.50
2012,11,19,11,14,10.10
2012,11,19,11,15,8.90
2012,11,19,11,16,10.50
2012,11,19,11,17,7.20
2012,11,19,11,18,6.20
2012,11,19,11,19,10.30
2012,11,19,11,20,7.70
2012,11,19,11,21,5.30
2012,11,19,11,22,10.10
2012,11,19,11,23,9.70
2012,11,19,11,24,9.30
2012,11,19,11,25,10.90
2012,11,19,11,26,11.70
2012,11,19,11,27,13.70
2012,11,19,11,28,11.30
2012,11,19,11,29,10.20
2012,11,19,11,30,4.90
2012,11,19,11,31,5.10
2012,11,19,11,32,8.40
2012,11,19,11,33,6.40
2012,11,19,11,34,7.40
2012,11,19,11,35,6.70
2012,11,19,11,36,7.00
2012,11,19,11,37,7.70
2012,11,19,11,38,5.50
2012,11,19,11,39,6.10
2012,11,19,11,40,6.50
2012,11,19,11,41,5.20
2012,11,19,11,42,5.40
2012,11,19,11,43,4.00
2012,11,19,11,44,6.40
2012,11,19,11,45,7.50
2012,11,19,11,46,2.40
2012,11,19,11,47,0.30
2012,11,19,11,48,0.80
2012,11,19,11,49,3.00
2012,11,19,11,50,1.80
2012,11,19,11,51,1.00
2012,11,19,11,52,0.20
2012,11,19,11,53,0.80
2012,11,19,11,54,0.80
2012,11,19,11,55,0.90
2012,11,19,11,56,0.80
2012,11,19,11,57,1.80
2012,11,19,11,58,4.00
2012,11,19,11,59,4.40
2012,11,19,12,00,3.40
2012,11,19,12,01,3.40
2012,11,19,12,02,3.30
2012,11,19,12,03,3.40
2012,11,19,12,04,2.30
2012,11,19,12,05,0.40
2012,11,19,12,06,3.50
2012,11,19,12,07,0.90
2012,11,19,12,08,0.90
2012,11,19,12,09,0.20
2012,11,19,12,10,0.10
2012,11,19,12,11,2.00
2012,11,19,12,12,4.70
2012,11,19,12,13,4.20
2012,11,19,12,14,2.20
2012,11,19,12,15,0.10
2012,11,19,12,16,1.40
2012,11,19,12,17,1.70
2012,11,19,12,18,2.70
2012,11,19,12,19,3.00
2012,11,19,12,20,3.40
2012,11,19,12,21,2.70
2012,11,19,12,22,1.30
2012,11,19,12,23,1.90
2012,11,19,12,24,0.40
2012,11,19,12,25,0.60
2012,11,19,12,26,0.80
2012,11,19,12,27,1.50
2012,11,19,12,28,3.50
2012,11,19,12,29,3.00
2012,11,19,12,30,0.50
2012,11,19,12,31,1.70
2012,11,19,12,32,5.00
2012,11,19,12,33,3.50
2012,11,19,12,34,5.60
2012,11,19,12,35,2.20
2012,11,19,12,36,4.60
2012,11,19,12,37,6.10
2012,11,19,12,38,0.90
2012,11,19,12,39,2.90
2012,11,19,12,40,2.30
2012,11,19,12,41,1.40
2012,11,19,12,42,2.40
2012,11,19,12,43,1.90
2012,11,19,12,44,0.40
2012,11,19,12,45,0.20
2012,11,19,12,46,0.40
2012,11,19,12,47,0.50
2012,11,19,12,48,2.70
2012,11,19,12,49,2.20
2012,11,19,12,50,4.70
2012,11,19,12,51,3.50
2012,11,19,12,52,7.20
2012,11,19,12,53,5.60
2012,11,19,12,54,8.10
2012,11,19,12,55,8.10
2012,11,19,12,56,4.40
2012,11,19,12,57,0.90
2012,11,19,12,58,0.00
2012,11,19,12,59,0.00
2012,11,19,13,00,0.00
2012,11,19,13,01,1.00
2012,11,19,13,02,1.20
2012,11,19,13,03,2.30
2012,11,19,13,04,0.00
2012,11,19,13,05,0.00
2012,11,19,13,06,0.10
2012,11,19,13,07,0.30
2012,11,19,13,08,0.10
2012,11,19,13,09,0.00
2012,11,19,13,10,0.00
2012,11,19,13,11,0.00
2012,11,19,13,12,0.00
2012,11,19,13,13,0.00
2012,11,19,13,14,0.10
2012,11,19,13,15,2.00
2012,11,19,13,16,2.10
2012,11,19,13,17,0.00
2012,11,19,13,18,0.00
2012,11,19,13,19,0.00
2012,11,19,13,20,0.00
2012,11,19,13,21,0.00
2012,11,19,13,22,0.00
2012,11,19,13,23,0.00
2012,11,19,13,24,0.00
2012,11,19,13,25,0.30
2012,11,19,13,26,1.30
2012,11,19,13,27,0.70
2012,11,19,13,28,2.00
2012,11,19,13,29,2.30
2012,11,19,13,30,4.10
2012,11,19,13,31,1.00
2012,11,19,13,32,0.20
2012,11,19,13,33,2.40
2012,11,19,13,34,1.30
2012,11,19,13,35,4.40
2012,11,19,13,36,6.00
2012,11,19,13,37,7.40
2012,11,19,13,38,7.10
2012,11,19,13,39,3.60
2012,11,19,13,40,4.40
2012,11,19,13,41,3.50
2012,11,19,13,42,2.40
2012,11,19,13,43,1.40
2012,11,19,13,44,1.20
2012,11,19,13,45,0.60
2012,11,19,13,46,4.10
2012,11,19,13,47,3.30
2012,11,19,13,48,4.10
2012,11,19,13,49,1.90
2012,11,19,13,50,1.80
2012,11,19,13,51,6.20
2012,11,19,13,52,2.40
2012,11,19,13,53,1.50
2012,11,19,13,54,5.20
2012,11,19,13,55,7.10
2012,11,19,13,56,5.60
2012,11,19,13,57,0.40
2012,11,19,13,58,2.70
2012,11,19,13,59,1.50
2012,11,19,14,00,5.00
2012,11,19,14,01,4.90
2012,11,19,14,02,6.40
2012,11,19,14,03,7.00
2012,11,19,14,04,6.80
2012,11,19,14,05,0.90
2012,11,19,14,06,0.30
2012,11,19,14,07,0.00
2012,11,19,14,08,4.30
2012,11,19,14,09,3.80
2012,11,19,14,10,2.10
2012,11,19,14,11,3.40
2012,11,19,14,12,6.40
2012,11,19,14,13,4.30
2012,11,19,14,14,2.80
2012,11,19,14,15,0.90
2012,11,19,14,16,2.30
2012,11,19,14,17,0.90
2012,11,19,14,18,0.50
2012,11,19,14,19,0.60
2012,11,19,14,20,0.30
2012,11,19,14,21,1.40
2012,11,19,14,22,0.80
2012,11,19,14,23,0.40
2012,11,19,14,24,0.20
2012,11,19,14,25,1.00
2012,11,19,14,26,0.00
2012,11,19,14,27,0.00
2012,11,19,14,28,0.00
2012,11,19,14,29,0.00
2012,11,19,14,30,0.20
2012,11,19,14,31,1.90
2012,11,19,14,32,1.30
2012,11,19,14,33,1.80
2012,11,19,14,34,0.30
2012,11,19,14,35,0.20
2012,11,19,14,36,0.00
2012,11,19,14,37,0.00
2012,11,19,14,38,0.10
2012,11,19,14,39,0.30
2012,11,19,14,40,0.70
2012,11,19,14,41,3.60
2012,11,19,14,42,4.40
2012,11,19,14,43,2.00
2012,11,19,14,44,0.00
2012,11,19,14,45,0.00
2012,11,19,14,46,0.80
2012,11,19,14,47,2.40
2012,11,19,14,48,1.20
2012,11,19,14,49,0.10
2012,11,19,14,50,0.00
2012,11,19,14,51,0.00
2012,11,19,14,52,0.10
2012,11,19,14,53,0.20
2012,11,19,14,54,0.20
2012,11,19,14,55,0.50
2012,11,19,14,56,3.00
2012,11,19,14,57,1.60
2012,11,19,14,58,0.90
2012,11,19,14,59,0.10
2012,11,19,15,00,0.00
2012,11,19,15,01,0.10
2012,11,19,15,02,0.00
2012,11,19,15,03,0.00
2012,11,19,15,04,0.00
2012,11,19,15,05,0.00
2012,11,19,15,06,0.00
2012,11,19,15,07,0.00
2012,11,19,15,08,0.00
2012,11,19,15,09,0.00
2012,11,19,15,10,0.00
2012,11,19,15,11,0.00
2012,11,19,15,12,0.00
2012,11,19,15,13,0.00
2012,11,19,15,14,0.00
2012,11,19,15,15,0.00
2012,11,19,15,16,0.00
2012,11,19,15,17,0.00
2012,11,19,15,18,0.70
2012,11,19,15,19,1.00
2012,11,19,15,20,0.60
2012,11,19,15,21,0.10
2012,11,19,15,22,0.10
2012,11,19,15,23,0.20
2012,11,19,15,24,0.30
2012,11,19,15,25,1.50
2012,11,19,15,26,2.10
2012,11,19,15,27,2.20
2012,11,19,15,28,2.00
2012,11,19,15,29,4.50
2012,11,19,15,30,1.80
2012,11,19,15,31,4.60
2012,11,19,15,32,4.00
2012,11,19,15,33,0.40
2012,11,19,15,34,1.30
2012,11,19,15,35,1.50
2012,11,19,15,36,1.50
2012,11,19,15,37,2.70
2012,11,19,15,38,0.00
2012,11,19,15,39,0.10
2012,11,19,15,40,0.00
2012,11,19,15,41,0.00
2012,11,19,15,42,0.00
2012,11,19,15,43,0.00
2012,11,19,15,44,1.60
2012,11,19,15,45,1.00
2012,11,19,15,46,2.20
2012,11,19,15,47,3.10
2012,11,19,15,48,1.90
2012,11,19,15,49,0.10
2012,11,19,15,50,0.80
2012,11,19,15,51,0.00
2012,11,19,15,52,0.10
2012,11,19,15,53,0.10
2012,11,19,15,54,0.20
2012,11,19,15,55,2.60
2012,11,19,15,56,2.50
2012,11,19,15,57,2.80
2012,11,19,15,58,5.40
2012,11,19,15,59,4.30
2012,11,19,16,00,1.40
2012,11,19,16,01,0.20
2012,11,19,16,02,1.50
2012,11,19,16,03,3.80
2012,11,19,16,04,1.50
2012,11,19,16,05,0.00
2012,11,19,16,06,1.00
2012,11,19,16,07,2.60
2012,11,19,16,08,0.10
2012,11,19,16,09,0.00
2012,11,19,16,10,0.00
2012,11,19,16,11,0.00
2012,11,19,16,12,1.80
2012,11,19,16,13,2.60
2012,11,19,16,14,0.60
2012,11,19,16,15,3.50
2012,11,19,16,16,5.80
2012,11,19,16,17,3.10
2012,11,19,16,18,6.70
2012,11,19,16,19,7.50
2012,11,19,16,20,9.50
2012,11,19,16,21,6.90
2012,11,19,16,22,7.90
2012,11,19,16,23,8.50
2012,11,19,16,24,8.00
2012,11,19,16,25,4.40
2012,11,19,16,26,4.50
2012,11,19,16,27,5.10
2012,11,19,16,28,5.80
2012,11,19,16,29,4.10
2012,11,19,16,30,4.10
2012,11,19,16,31,3.10
2012,11,19,16,32,5.80
2012,11,19,16,33,2.70
2012,11,19,16,34,2.30
2012,11,19,16,35,1.00
2012,11,19,16,36,5.00
2012,11,19,16,37,2.90
2012,11,19,16,38,4.10
2012,11,19,16,39,3.80
2012,11,19,16,40,4.00
2012,11,19,16,41,6.20
2012,11,19,16,42,3.90
2012,11,19,16,43,5.40
2012,11,19,16,44,6.60
2012,11,19,16,45,8.40
2012,11,19,16,46,7.90
2012,11,19,16,47,8.00
2012,11,19,16,48,6.00
2012,11,19,16,49,5.40
2012,11,19,16,50,3.50
2012,11,19,16,51,6.10
2012,11,19,16,52,4.70
2012,11,19,16,53,4.20
2012,11,19,16,54,3.80
2012,11,19,16,55,3.90
2012,11,19,16,56,3.40
2012,11,19,16,57,5.00
2012,11,19,16,58,3.60
2012,11,19,16,59,3.90
2012,11,19,17,00,4.90
2012,11,19,17,01,6.60
2012,11,19,17,02,8.40
2012,11,19,17,03,5.70
2012,11,19,17,04,8.60
2012,11,19,17,05,8.30
2012,11,19,17,06,8.70
2012,11,19,17,07,7.90
2012,11,19,17,08,3.30
2012,11,19,17,09,1.90
2012,11,19,17,10,3.50
2012,11,19,17,11,4.80
2012,11,19,17,12,2.90
2012,11,19,17,13,1.40
2012,11,19,17,14,3.00
2012,11,19,17,15,1.10
2012,11,19,17,16,1.40
2012,11,19,17,17,4.50
2012,11,19,17,18,5.20
2012,11,19,17,19,5.80
2012,11,19,17,20,6.10
2012,11,19,17,21,4.80
2012,11,19,17,22,4.90
2012,11,19,17,23,1.20
2012,11,19,17,24,4.80
2012,11,19,17,25,3.20
2012,11,19,17,26,10.40
2012,11,19,17,27,3.40
2012,11,19,17,28,5.60
2012,11,19,17,29,4.40
2012,11,19,17,30,6.80
2012,11,19,17,31,4.20
2012,11,19,17,32,5.90
2012,11,19,17,33,3.50
2012,11,19,17,34,3.40
2012,11,19,17,35,2.20
2012,11,19,17,36,4.90
2012,11,19,17,37,8.10
2012,11,19,17,38,6.40
2012,11,19,17,39,5.40
2012,11,19,17,40,9.10
2012,11,19,17,41,4.70
2012,11,19,17,42,3.10
2012,11,19,17,43,2.10
2012,11,19,17,44,5.20
2012,11,19,17,45,4.30
2012,11,19,17,46,2.90
2012,11,19,17,47,11.80
2012,11,19,17,48,6.80
2012,11,19,17,49,9.40
2012,11,19,17,50,8.50
2012,11,19,17,51,7.80
2012,11,19,17,52,10.00
2012,11,19,17,53,6.80
2012,11,19,17,54,10.10